Weather History for Siemreap, Cambodia

Change the Weather History Date:

Monday, March 4, 2013

  Actual Average Record
Temperature  
Mean Temperature 81 °F -  
Max Temperature 89 °F - - ()
Min Temperature 73 °F - - ()
Cooling Degree Days 16    
Growing Degree Days 31 (Base 50)    
Moisture  
Dew Point 65 °F    
Average Humidity 62    
Maximum Humidity 83    
Minimum Humidity 46    
Precipitation  
Precipitation 0.00 in - - ()
Sea Level Pressure  
Sea Level Pressure 29.94 in    
Wind  
Wind Speed 9 mph ()    
Max Wind Speed 17 mph    
Max Gust Speed 20 mph    
Visibility 6.0 miles    
Events      
T = Trace of Precipitation, MM = Missing Value Source: Averaged Metar Reports

Daily Weather History Graph

Daily Weather History Graph

Search for Another Location

Airport:

Trip Planner

Search our weather history database for the weather conditions in past years. The results will help you decide how hot, cold, wet, or windy it might be!

Date:

Astronomy

Mar. 04, 2013 Rise Set
Actual Time 6:19 AM ICT 6:13 PM ICT
Civil Twilight 5:57 AM ICT 6:35 PM ICT
Nautical Twilight 5:33 AM ICT 6:59 PM ICT
Astronomical Twilight 5:08 AM ICT 7:24 PM ICT
Moon No Moon Rise 11:05 AM ICT (3/4)
Length of Visible Light 12h 37m
Length of Day
11h 54m
Waning Gibbous, 58% of the Moon is Illuminated
Mar 4
Waning Gibbous
Mar 5
Last Quarter
Mar 12
New
Mar 20
First Quarter
Mar 27
Full

Hourly Weather History & Observations

Time (ICT) Temp. Heat Index Dew Point Humidity Pressure Visibility Wind Dir Wind Speed Gust Speed Precip Events Conditions
12:00 AM 78.8 °F - 73.4 °F 83% 29.92 in 5.6 mi WNW 9.2 mph - N/A   Scattered Clouds
12:30 AM 78.8 °F - 73.4 °F 83% 29.92 in 5.6 mi WNW 8.1 mph - N/A   Scattered Clouds
1:00 AM 80.6 °F 85.4 °F 73.4 °F 79% 29.92 in 5.6 mi NW 8.1 mph 19.6 mph N/A   Scattered Clouds
7:00 AM 73.4 °F - 64.4 °F 73% 29.95 in 6.2 mi North 8.1 mph - N/A   Scattered Clouds
7:30 AM 75.2 °F - 64.4 °F 69% 29.98 in 6.2 mi North 8.1 mph - N/A   Scattered Clouds
8:00 AM 75.2 °F - 64.4 °F 69% 29.98 in 6.2 mi North 6.9 mph - N/A   Scattered Clouds
8:30 AM 77.0 °F - 64.4 °F 65% 29.98 in - NNE 9.2 mph - N/A   Clear
9:00 AM 78.8 °F - 64.4 °F 61% 29.98 in - NE 11.5 mph - N/A   Clear
9:30 AM 80.6 °F 82.3 °F 64.4 °F 58% 30.01 in - North 9.2 mph - N/A   Clear
10:00 AM 82.4 °F 83.9 °F 64.4 °F 54% 30.01 in - NNE 6.9 mph - N/A   Clear
10:30 AM 84.2 °F 87.3 °F 68.0 °F 58% 30.01 in - North 5.8 mph - N/A   Clear
11:00 AM 84.2 °F 86.6 °F 66.2 °F 55% 29.98 in 6.2 mi Variable 5.8 mph - N/A   Partly Cloudy
11:30 AM 87.8 °F 90.4 °F 66.2 °F 49% 29.95 in 6.2 mi Variable 2.3 mph - N/A   Scattered Clouds
12:00 PM 87.8 °F 90.4 °F 66.2 °F 49% 29.95 in 6.2 mi ENE 12.7 mph - N/A   Scattered Clouds
12:30 PM 89.6 °F 92.2 °F 66.2 °F 46% 29.92 in 6.2 mi East 9.2 mph - N/A   Scattered Clouds
1:00 PM 87.8 °F 90.4 °F 66.2 °F 49% 29.92 in 6.2 mi SW 8.1 mph - N/A   Scattered Clouds
1:30 PM 89.6 °F 92.2 °F 66.2 °F 46% 29.89 in 6.2 mi West 8.1 mph - N/A   Mostly Cloudy
2:00 PM 86.0 °F 88.2 °F 66.2 °F 51% 29.89 in 6.2 mi NW 8.1 mph - N/A   Mostly Cloudy
2:30 PM 86.0 °F 87.3 °F 64.4 °F 48% 29.89 in 6.2 mi WNW 12.7 mph - N/A   Mostly Cloudy
3:00 PM 86.0 °F 87.3 °F 64.4 °F 48% 29.89 in 6.2 mi NNW 17.3 mph - N/A   Mostly Cloudy
3:30 PM 82.4 °F 83.4 °F 62.6 °F 51% 29.86 in 6.2 mi NNW 17.3 mph - N/A   Mostly Cloudy
4:00 PM 82.4 °F 83.4 °F 62.6 °F 51% 29.89 in 6.2 mi NNW 15.0 mph - N/A   Mostly Cloudy
4:30 PM 80.6 °F 82.3 °F 64.4 °F 58% 29.89 in 6.2 mi NNW 13.8 mph - N/A   Mostly Cloudy
5:00 PM 78.8 °F - 64.4 °F 61% 29.89 in 6.2 mi NNW 16.1 mph - N/A   Mostly Cloudy
5:30 PM 77.0 °F - 64.4 °F 65% 29.89 in 6.2 mi NNW 13.8 mph - N/A   Mostly Cloudy
6:00 PM 75.2 °F - 62.6 °F 65% 29.92 in 6.2 mi NNW 13.8 mph - N/A   Scattered Clouds
6:30 PM 75.2 °F - 62.6 °F 65% 29.92 in 6.2 mi NNW 17.3 mph - N/A   Scattered Clouds
7:00 PM 75.2 °F - 62.6 °F 65% 29.92 in 6.2 mi North 13.8 mph - N/A   Scattered Clouds
7:30 PM 73.4 °F - 62.6 °F 69% 29.95 in 6.2 mi North 11.5 mph - N/A   Scattered Clouds
8:00 PM 73.4 °F - 62.6 °F 69% 29.95 in 6.2 mi North 9.2 mph - N/A   Scattered Clouds
8:30 PM 73.4 °F - 62.6 °F 69% 29.95 in 6.2 mi North 9.2 mph - N/A   Scattered Clouds
9:00 PM 73.4 °F - 62.6 °F 69% 29.98 in 5.6 mi North 11.5 mph - N/A   Partly Cloudy
9:30 PM 75.2 °F - 62.6 °F 65% 29.98 in 5.6 mi North 9.2 mph - N/A   Partly Cloudy
10:00 PM 73.4 °F - 62.6 °F 69% 29.98 in 5.6 mi North 9.2 mph - N/A   Partly Cloudy
10:30 PM 73.4 °F - 62.6 °F 69% 29.98 in 5.6 mi North 9.2 mph - N/A   Partly Cloudy
11:00 PM 73.4 °F - 62.6 °F 69% 29.98 in 5.6 mi North 9.2 mph - N/A   Partly Cloudy
11:30 PM 73.4 °F - 62.6 °F 69% 29.98 in 5.6 mi North 11.5 mph - N/A   Partly Cloudy